DW8362 Weather Reports


time (UTC)temp
C
wind
direction
speed
KPH
gust
KPH
rain 1hr
cm
rain 24hr
cm
rain mn
cm
humidity
%
barometer
mb
20260509213048 25 154 0.0 6.4 0.00 0.00 0.00 48 1006.7
20260509212548 25 223 1.6 6.4 0.00 0.00 0.00 48 1006.7
20260509212048 25 166 3.2 6.4 0.00 0.00 0.00 48 1006.7
20260509211554 23 235 1.6 6.4 0.00 0.00 0.00 50 1006.7
20260509211549 24 199 0.0 6.4 0.00 0.00 0.00 50 1006.8
20260509210554 23 144 0.0 4.8 0.00 0.00 0.00 53 1006.7
20260509210549 23 144 1.6 4.8 0.00 0.00 0.00 52 1006.7
20260509210203 23 141 3.2 4.8 0.00 0.00 0.00 51 1006.8
20260509205052 23 134 0.0 6.4 0.00 0.00 0.00 51 1006.8
20260509205048 23 114 1.6 4.8 0.00 0.00 0.00 51 1006.7
20260509204048 23 141 1.6 6.4 0.00 0.00 0.00 48 1006.8
20260509203546 24 169 3.2 6.4 0.00 0.00 0.00 49 1006.8
20260509203048 24 165 1.6 6.4 0.00 0.00 0.00 49 1006.7
20260509202547 24 110 3.2 8.0 0.00 0.00 0.00 51 1006.8
20260509202048 23 172 3.2 8.0 0.00 0.00 0.00 52 1006.8
20260509201547 23 69 1.6 6.4 0.00 0.00 0.00 53 1006.8
20260509201047 23 131 0.0 6.4 0.00 0.00 0.00 52 1006.8
20260509200549 23 141 0.0 6.4 0.00 0.00 0.00 51 1006.8
20260509200046 23 120 0.0 8.0 0.00 0.00 0.00 51 1006.9
20260509195546 23 144 1.6 8.0 0.00 0.00 0.00 52 1006.9
20260509195046 23 141 1.6 8.0 0.00 0.00 0.00 51 1007.0
20260509194547 23 159 0.0 6.4 0.00 0.00 0.00 54 1006.9
20260509194046 23 162 3.2 6.4 0.00 0.00 0.00 52 1007.0
20260509193551 23 159 3.2 8.0 0.00 0.00 0.00 51 1007.0
20260509193546 23 133 0.0 8.0 0.00 0.00 0.00 52 1006.9
20260509192550 23 166 4.8 8.0 0.00 0.00 0.00 52 1007.2
20260509192545 23 192 0.0 8.0 0.00 0.00 0.00 49 1007.1
20260509191546 23 154 1.6 8.0 0.00 0.00 0.00 51 1007.2
20260509191045 23 111 0.0 11.3 0.00 0.00 0.00 52 1007.3
20260509190548 22 142 3.2 8.0 0.00 0.00 0.00 52 1007.6
20260509190544 22 154 4.8 11.3 0.00 0.00 0.00 52 1007.5
20260509185545 22 145 4.8 8.0 0.00 0.00 0.00 50 1007.5
20260509185047 22 309 0.0 4.8 0.00 0.00 0.00 52 1007.6
20260509184545 22 176 0.0 8.0 0.00 0.00 0.00 53 1007.6
20260509184045 22 151 3.2 11.3 0.00 0.00 0.00 52 1007.6
20260509183544 22 168 1.6 11.3 0.00 0.00 0.00 54 1007.7
20260509183044 22 169 6.4 8.0 0.00 0.00 0.00 52 1007.9
20260509182544 21 145 1.6 4.8 0.00 0.00 0.00 54 1007.9
20260509182044 21 320 0.0 3.2 0.00 0.00 0.00 52 1008.0
20260509181544 21 329 0.0 4.8 0.00 0.00 0.00 53 1008.1
20260509181044 21 286 1.6 4.8 0.00 0.00 0.00 54 1008.2
20260509180545 21 203 0.0 3.2 0.00 0.00 0.00 54 1008.3
20260509180044 21 307 0.0 3.2 0.00 0.00 0.00 54 1008.5
20260509175543 20 306 0.0 3.2 0.00 0.00 0.00 54 1008.4
20260509175047 20 202 0.0 4.8 0.00 0.00 0.00 53 1008.8
20260509175043 20 269 0.0 4.8 0.00 0.00 0.00 53 1008.5
20260509174044 20 183 0.0 3.2 0.00 0.00 0.00 54 1008.8
20260509173543 20 138 0.0 1.6 0.00 0.00 0.00 52 1008.9
20260509173043 20 319 0.0 1.6 0.00 0.00 0.00 53 1009.0
20260509172543 20 279 0.0 3.2 0.00 0.00 0.00 53 1009.1
20260509172044 20 337 1.6 4.8 0.00 0.00 0.00 54 1009.1
20260509171544 19 145 1.6 6.4 0.00 0.00 0.00 52 1009.2
20260509171044 20 161 3.2 8.0 0.00 0.00 0.00 51 1009.4
20260509170543 20 151 4.8 8.0 0.00 0.00 0.00 51 1009.6
20260509170042 20 151 0.0 4.8 0.00 0.00 0.00 51 1009.6
20260509165542 20 157 1.6 6.4 0.00 0.00 0.00 52 1009.4
20260509165042 20 290 0.0 6.4 0.00 0.00 0.00 49 1009.4
20260509164542 20 324 0.0 3.2 0.00 0.00 0.00 51 1009.3
20260509164042 20 175 0.0 3.2 0.00 0.00 0.00 50 1009.0
20260509163543 20 210 0.0 6.4 0.00 0.00 0.00 52 1009.0
20260509163043 20 168 1.6 6.4 0.00 0.00 0.00 52 1008.9
20260509162541 20 286 1.6 6.4 0.00 0.00 0.00 51 1009.0
20260509162042 20 175 1.6 8.0 0.00 0.00 0.00 53 1009.2
20260509161542 20 329 0.0 8.0 0.00 0.00 0.00 53 1009.1
20260509161042 20 329 3.2 4.8 0.00 0.00 0.00 51 1009.3
20260509160541 20 248 0.0 3.2 0.00 0.00 0.00 52 1009.3
20260509160041 19 207 0.0 3.2 0.00 0.00 0.00 55 1009.3
20260509155542 19 207 0.0 3.2 0.00 0.00 0.00 54 1009.4
20260509155042 18 155 0.0 3.2 0.00 0.00 0.00 56 1009.4
20260509154540 19 145 0.0 3.2 0.00 0.00 0.00 52 1009.4
20260509154040 19 295 0.0 3.2 0.00 0.00 0.00 53 1009.4
20260509153541 19 293 1.6 3.2 0.00 0.00 0.00 56 1009.4
20260509153040 18 326 0.0 6.4 0.00 0.00 0.00 53 1009.6
20260509152540 18 220 1.6 6.4 0.00 0.00 0.00 55 1009.6
20260509152040 18 326 3.2 4.8 0.00 0.00 0.00 60 1009.6
20260509151540 18 329 1.6 6.4 0.00 0.00 0.00 58 1009.4
20260509151040 18 324 3.2 6.4 0.00 0.00 0.00 59 1009.6
20260509150540 18 330 0.0 3.2 0.00 0.00 0.00 61 1009.7
20260509150039 18 317 0.0 4.8 0.00 0.00 0.00 59 1009.7
20260509145539 17 125 0.0 6.4 0.00 0.00 0.00 60 1009.7
20260509145039 17 138 3.2 6.4 0.00 0.00 0.00 61 1009.9
20260509144540 17 109 0.0 3.2 0.00 0.00 0.00 66 1010.0
20260509144039 16 142 0.0 3.2 0.00 0.00 0.00 64 1010.0
20260509143539 16 197 0.0 6.4 0.00 0.00 0.00 64 1010.1
20260509143039 16 148 1.6 6.4 0.00 0.00 0.00 65 1010.1
20260509142539 16 158 1.6 6.4 0.00 0.00 0.00 66 1010.2
20260509142040 16 158 3.2 6.4 0.00 0.00 0.00 66 1010.3
20260509141543 15 142 1.6 4.8 0.00 0.00 0.00 66 1010.2
20260509141538 16 137 1.6 4.8 0.00 0.00 0.00 67 1010.3
20260509140538 15 158 0.0 4.8 0.00 0.00 0.00 68 1009.9
20260509140039 15 152 1.6 4.8 0.00 0.00 0.00 66 1009.7
20260509135537 15 151 0.0 6.4 0.00 0.00 0.00 66 1009.7
20260509135044 15 195 1.6 6.4 0.00 0.00 0.00 66 1009.8
20260509135038 15 151 3.2 6.4 0.00 0.00 0.00 66 1009.8
20260509134038 15 151 0.0 6.4 0.00 0.00 0.00 65 1009.8
20260509133542 15 149 1.6 4.8 0.00 0.00 0.00 65 1009.7
20260509133538 15 138 1.6 4.8 0.00 0.00 0.00 64 1009.8
20260509132537 15 157 0.0 4.8 0.00 0.00 0.00 64 1009.8
20260509132043 15 147 1.6 4.8 0.00 0.00 0.00 66 1009.9
20260509132039 15 154 1.6 4.8 0.00 0.00 0.00 65 1009.9
20260509131037 15 114 3.2 6.4 0.00 0.00 0.00 66 1009.9
20260509130538 15 158 0.0 6.4 0.00 0.00 0.00 69 1009.9
20260509130036 15 158 3.2 6.4 0.00 0.00 0.00 70 1009.9
20260509125536 15 142 1.6 4.8 0.00 0.00 0.00 69 1010.0
20260509125036 15 172 3.2 4.8 0.00 0.00 0.00 68 1010.0
20260509124542 14 148 0.0 3.2 0.00 0.00 0.00 69 1009.8
20260509124536 15 141 0.0 4.8 0.00 0.00 0.00 69 1010.0
20260509124037 15 157 0.0 3.2 0.00 0.00 0.00 68 1009.8
20260509123657 14 161 1.6 3.2 0.00 0.00 0.00 68 1009.9
20260509123035 14 165 0.0 3.2 0.00 0.00 0.00 70 1009.8
20260509122654 14 151 0.0 0.0 0.00 0.00 0.00 71 1009.9
20260509121536 14 151 0.0 3.2 0.00 0.00 0.00 70 1010.0
20260509121035 13 151 0.0 3.2 0.00 0.00 0.00 71 1010.1
20260509120536 13 169 0.0 3.2 0.00 0.00 0.00 74 1010.0
20260509120035 13 145 0.0 3.2 0.00 0.00 0.00 75 1010.1
20260509115535 13 159 1.6 3.2 0.00 0.00 0.00 77 1010.0
20260509115037 12 142 0.0 3.2 0.00 0.00 0.00 79 1009.9
20260509114535 12 148 0.0 1.6 0.00 0.00 0.00 80 1009.7
20260509114035 12 151 0.0 1.6 0.00 0.00 0.00 82 1009.9
20260509113535 12 131 0.0 0.0 0.00 0.00 0.00 84 1009.8
20260509113040 11 131 0.0 0.0 0.00 0.00 0.00 84 1009.7
20260509113034 12 131 0.0 0.0 0.00 0.00 0.00 84 1009.8
20260509112035 11 131 0.0 0.0 0.00 0.00 0.00 84 1009.6
20260509111534 11 131 0.0 0.0 0.00 0.00 0.00 83 1009.4
20260509111040 11 131 0.0 0.0 0.00 0.00 0.00 83 1009.2
20260509111034 11 131 0.0 0.0 0.00 0.00 0.00 83 1009.3
20260509110655 11 131 0.0 0.0 0.00 0.00 0.00 82 1009.2
20260509105535 11 131 0.0 0.0 0.00 0.00 0.00 81 1009.2
20260509105034 11 131 0.0 0.0 0.00 0.00 0.00 82 1009.1
20260509104534 11 131 0.0 0.0 0.00 0.00 0.00 82 1009.2
20260509104034 -17 0.0 0.0 0.00 0.00 0.00 1009.1
20260509103534 -17 0.0 0.0 0.00 0.00 0.00 1009.0
20260509103033 -17 0.0 0.0 0.00 0.00 0.00 1009.0
20260509102532 -17 0.0 0.0 0.00 0.00 0.00 1009.1
20260509102030 -17 0.0 0.0 0.00 0.00 0.00 1009.0
20260509101530 -17 0.0 0.0 0.00 0.00 0.00 1009.0
20260509101028 -17 0.0 0.0 0.00 0.00 0.00 1009.0
20260509100527 -17 0.0 0.0 0.00 0.00 0.00 1009.0
20260509100027 -17 0.0 0.0 0.00 0.00 0.00 1009.0
20260509095526 -17 0.0 0.0 0.00 0.00 0.00 1009.0
20260509095025 -17 0.0 0.0 0.00 0.00 0.00 1008.9
20260509094524 -17 0.0 0.0 0.00 0.00 0.00 1009.0
20260509094023 -17 0.0 0.0 0.00 0.00 0.00 1008.9
20260509093522 -17 0.0 0.0 0.00 0.00 0.00 1009.0
20260509093021 -17 0.0 0.0 0.00 0.00 0.00 1009.1
20260509092524 -17 0.0 0.0 0.00 0.00 0.00 1009.1
20260509092520 -17 0.0 0.0 0.00 0.00 0.00 1009.0
20260509091518 -17 0.0 0.0 0.00 0.00 0.00 1009.0
20260509091021 -17 0.0 0.0 0.00 0.00 0.00 1009.0
20260509091017 -17 0.0 0.0 0.00 0.00 0.00 1009.0
20260509090015 -17 0.0 0.0 0.00 0.00 0.00 1009.1
20260509085515 -17 0.0 0.0 0.00 0.00 0.00 1009.1
20260509085014 -17 0.0 0.0 0.00 0.00 0.00 1009.1
20260509084513 -17 0.0 0.0 0.00 0.00 0.00 1009.2
20260509084012 -17 0.0 0.0 0.00 0.00 0.00 1009.2
20260509083511 24 131 0.0 0.0 0.00 0.00 0.00 84 1009.3
20260509083009 11 131 0.0 0.0 0.00 0.00 0.00 85 1009.3
20260509082511 11 131 0.0 0.0 0.00 0.00 0.00 85 1009.4
20260509082009 11 131 0.0 0.0 0.00 0.00 0.00 85 1009.4
20260509081509 11 131 0.0 0.0 0.00 0.00 0.00 83 1009.4
20260509081009 11 131 0.0 0.0 0.00 0.00 0.00 84 1009.4
20260509080514 11 131 0.0 0.0 0.00 0.00 0.00 84 1009.4
20260509080508 11 131 0.0 0.0 0.00 0.00 0.00 84 1009.4
20260509080126 10 131 0.0 0.0 0.00 0.00 0.00 84 1009.4
20260509075008 10 131 0.0 0.0 0.00 0.00 0.00 83 1009.4
20260509074513 10 131 0.0 0.0 0.00 0.00 0.00 85 1009.4
20260509074508 10 131 0.0 0.0 0.00 0.00 0.00 84 1009.4
20260509073509 10 131 0.0 0.0 0.00 0.00 0.00 85 1009.4
20260509073007 10 131 0.0 0.0 0.00 0.00 0.00 85 1009.4
20260509072508 10 131 0.0 0.0 0.00 0.00 0.00 84 1009.4
20260509072008 10 131 0.0 0.0 0.00 0.00 0.00 84 1009.6
20260509071508 11 131 0.0 0.0 0.00 0.00 0.00 84 1009.6
20260509071007 11 131 0.0 0.0 0.00 0.00 0.00 83 1009.6
20260509070507 11 131 0.0 3.2 0.00 0.00 0.00 83 1009.4
20260509070015 10 142 0.0 0.0 0.00 0.00 0.00 84 1009.7
20260509070007 11 131 0.0 3.2 0.00 0.00 0.00 82 1009.6
20260509065507 11 120 0.0 1.6 0.00 0.00 0.00 81 1009.7
20260509065008 10 142 0.0 0.0 0.00 0.00 0.00 82 1009.6
20260509064009 10 142 0.0 0.0 0.00 0.00 0.00 83 1009.7
20260509063507 10 142 0.0 0.0 0.00 0.00 0.00 84 1009.8
20260509063010 10 142 0.0 0.0 0.00 0.00 0.00 83 1009.9
20260509063006 10 142 0.0 0.0 0.00 0.00 0.00 84 1009.8
20260509062007 10 142 0.0 0.0 0.00 0.00 0.00 83 1009.8
20260509061506 10 142 0.0 0.0 0.00 0.00 0.00 81 1009.7
20260509061007 10 142 0.0 0.0 0.00 0.00 0.00 82 1009.9
20260509060507 10 142 0.0 0.0 0.00 0.00 0.00 83 1010.0
20260509060007 10 142 0.0 0.0 0.00 0.00 0.00 83 1009.9
20260509055510 10 142 0.0 0.0 0.00 0.00 0.00 81 1010.0
20260509055505 10 142 0.0 0.0 0.00 0.00 0.00 82 1009.9
20260509054506 10 142 0.0 0.0 0.00 0.00 0.00 81 1010.1
20260509054005 10 142 0.0 0.0 0.00 0.00 0.00 81 1010.1
20260509053506 10 142 0.0 0.0 0.00 0.00 0.00 82 1010.1
20260509053005 10 142 0.0 0.0 0.00 0.00 0.00 81 1010.1
20260509052504 10 142 0.0 0.0 0.00 0.00 0.00 82 1010.2
20260509052005 9 142 0.0 0.0 0.00 0.00 0.00 84 1010.1
20260509051506 9 142 0.0 0.0 0.00 0.00 0.00 85 1010.1
20260509051005 9 142 0.0 0.0 0.00 0.00 0.00 86 1010.2
20260509050510 9 142 0.0 0.0 0.00 0.00 0.00 86 1010.3
20260509050505 9 142 0.0 0.0 0.00 0.00 0.00 86 1010.2
20260509045505 9 142 0.0 0.0 0.00 0.00 0.00 86 1010.2
20260509045005 9 142 0.0 0.0 0.00 0.00 0.00 86 1010.3
20260509044504 8 142 0.0 0.0 0.00 0.00 0.00 86 1010.3
20260509044003 8 142 0.0 0.0 0.00 0.00 0.00 86 1010.2
20260509043504 8 142 0.0 0.0 0.00 0.00 0.00 86 1010.2
20260509043003 8 142 0.0 0.0 0.00 0.00 0.00 86 1010.2
20260509042512 9 142 0.0 0.0 0.00 0.00 0.00 84 1010.3
20260509042504 8 142 0.0 0.0 0.00 0.00 0.00 85 1010.2
20260509042005 8 142 0.0 0.0 0.00 0.00 0.00 85 1010.2
20260509041504 9 142 0.0 0.0 0.00 0.00 0.00 84 1010.2
20260509040504 9 142 0.0 0.0 0.00 0.00 0.00 84 1010.3
20260509040003 9 142 0.0 0.0 0.00 0.00 0.00 84 1010.4
20260509035503 9 142 0.0 0.0 0.00 0.00 0.00 84 1010.3
20260509035004 9 142 0.0 0.0 0.00 0.00 0.00 82 1010.3
20260509034503 10 142 0.0 0.0 0.00 0.00 0.00 82 1010.3
20260509034008 10 142 0.0 0.0 0.00 0.00 0.00 81 1010.3
20260509034004 10 142 0.0 0.0 0.00 0.00 0.00 82 1010.3
20260509033002 10 142 0.0 0.0 0.00 0.00 0.00 81 1010.3
20260509032502 10 142 0.0 0.0 0.00 0.00 0.00 80 1010.4
20260509032007 10 142 0.0 0.0 0.00 0.00 0.00 79 1010.4
20260509032002 10 142 0.0 0.0 0.00 0.00 0.00 79 1010.4
20260509031003 10 142 0.0 0.0 0.00 0.00 0.00 79 1010.4
20260509030502 10 142 0.0 0.0 0.00 0.00 0.00 79 1010.4
20260509030003 10 142 0.0 0.0 0.00 0.00 0.00 79 1010.4
20260509025501 10 142 0.0 0.0 0.00 0.00 0.00 79 1010.4
20260509025001 11 142 0.0 0.0 0.00 0.00 0.00 78 1010.3
20260509024501 11 142 0.0 1.6 0.00 0.00 0.00 78 1010.5
20260509024006 11 142 0.0 0.0 0.00 0.00 0.00 77 1010.6
20260509024001 11 142 0.0 1.6 0.00 0.00 0.00 77 1010.6
20260509023001 11 142 0.0 0.0 0.00 0.00 0.00 76 1010.5
20260509022501 11 142 0.0 0.0 0.00 0.00 0.00 76 1010.6
20260509022002 12 142 0.0 0.0 0.00 0.00 0.00 74 1010.5
20260509021500 12 142 0.0 0.0 0.00 0.00 0.00 74 1010.5
20260509021001 12 142 0.0 0.0 0.00 0.00 0.00 73 1010.5
20260509020501 12 142 0.0 0.0 0.00 0.00 0.00 73 1010.5
20260509020005 12 142 0.0 0.0 0.00 0.00 0.00 70 1010.5
20260509020000 12 142 0.0 0.0 0.00 0.00 0.00 71 1010.6
20260509015618 13 142 0.0 0.0 0.00 0.00 0.00 67 1010.5
20260509014500 13 142 0.0 0.0 0.00 0.00 0.00 67 1010.4
20260509014000 13 142 0.0 0.0 0.00 0.00 0.00 66 1010.5
20260509013501 13 142 0.0 0.0 0.00 0.00 0.00 64 1010.5
20260509012959 14 142 0.0 0.0 0.00 0.00 0.00 63 1010.4
20260509012459 14 142 0.0 1.6 0.00 0.00 0.00 62 1010.5
20260509011959 15 142 0.0 1.6 0.00 0.00 0.00 62 1010.4
20260509011507 15 142 0.0 0.0 0.00 0.00 0.00 58 1010.4
20260509011500 15 142 0.0 0.0 0.00 0.00 0.00 59 1010.3
20260509010959 15 142 0.0 0.0 0.00 0.00 0.00 58 1010.4
20260509010500 15 142 0.0 0.0 0.00 0.00 0.00 57 1010.4
20260509005458 16 142 0.0 1.6 0.00 0.00 0.00 59 1010.3
20260509004959 16 142 0.0 1.6 0.00 0.00 0.00 58 1010.3
20260509004459 16 142 0.0 3.2 0.00 0.00 0.00 56 1010.3
20260509004004 16 144 0.0 1.6 0.00 0.00 0.00 59 1010.2
20260509003959 16 142 1.6 3.2 0.00 0.00 0.00 59 1010.3
20260509002958 16 142 0.0 1.6 0.00 0.00 0.00 60 1010.3
20260509002503 17 213 0.0 0.0 0.00 0.00 0.00 59 1010.0
20260509002458 16 147 1.6 1.6 0.00 0.00 0.00 59 1010.2
20260509001957 17 213 0.0 0.0 0.00 0.00 0.00 60 1010.1
20260509001002 17 213 0.0 0.0 0.00 0.00 0.00 55 1009.9
20260509000957 17 213 0.0 0.0 0.00 0.00 0.00 55 1010.0
20260508235958 17 213 0.0 0.0 0.00 0.00 0.00 53 1009.9
20260508235505 18 213 0.0 0.0 0.00 0.00 0.00 52 1009.8
20260508235458 17 213 0.0 0.0 0.00 0.00 0.00 53 1009.9
20260508234957 17 213 0.0 0.0 0.00 0.00 0.00 53 1009.9
20260508233959 18 213 0.0 0.0 0.00 0.00 0.00 51 1009.8
20260508233456 18 213 0.0 0.0 0.00 0.00 0.00 51 1009.8
20260508232958 18 213 0.0 0.0 0.00 0.00 0.00 49 1009.7
20260508232456 18 212 0.0 0.0 0.00 0.00 0.00 49 1009.8
20260508231956 19 213 0.0 0.0 0.00 0.00 0.00 49 1009.7
20260508231502 20 245 0.0 0.0 0.00 0.00 0.00 40 1009.7
20260508231457 19 213 0.0 0.0 0.00 0.00 0.00 49 1009.7
20260508230456 20 245 0.0 0.0 0.00 0.00 0.00 39 1009.6
20260508225958 20 245 0.0 3.2 0.00 0.00 0.00 38 1009.6
20260508225457 20 247 0.0 3.2 0.00 0.00 0.00 37 1009.6
20260508224956 20 338 0.0 0.0 0.00 0.00 0.00 38 1009.6
20260508224457 20 338 0.0 0.0 0.00 0.00 0.00 38 1009.6
20260508223955 20 338 0.0 0.0 0.00 0.00 0.00 37 1009.6
20260508223455 21 338 0.0 3.2 0.00 0.00 0.00 36 1009.4
20260508222955 21 343 0.0 3.2 0.00 0.00 0.00 35 1009.4
20260508222455 21 245 0.0 1.6 0.00 0.00 0.00 34 1009.4
20260508222000 21 307 0.0 3.2 0.00 0.00 0.00 36 1009.4
20260508221955 21 238 0.0 3.2 0.00 0.00 0.00 34 1009.3
20260508220955 21 241 0.0 0.0 0.00 0.00 0.00 35 1009.4
20260508220455 21 272 0.0 4.8 0.00 0.00 0.00 36 1009.6
20260508215954 21 334 0.0 4.8 0.00 0.00 0.00 35 1009.6
20260508215456 21 337 0.0 3.2 0.00 0.00 0.00 36 1009.6
20260508214954 21 27 0.0 1.6 0.00 0.00 0.00 36 1009.7
20260508214454 21 244 0.0 1.6 0.00 0.00 0.00 36 1009.7
20260508213954 21 32 0.0 6.4 0.00 0.00 0.00 34 1009.6
20260508213453 22 152 0.0 6.4 0.00 0.00 0.00 35 1009.7